| time (UTC) | temp F | wind direction | speed knots | gust knots | rain 1hr in | rain 24hr in | rain mn in | humidity % | barometer mb |
| 20260503204558 | 58 | 150 | 0.0 | 2.6 | 0.00 | 0.00 | 0.00 | 83 | 1031.9 |
| 20260503203053 | 57 | 142 | 0.0 | 0.0 | 0.00 | 0.00 | 0.00 | 86 | 1031.9 |
| 20260503201552 | 57 | 142 | 0.0 | 0.0 | 0.00 | 0.00 | 0.00 | 85 | 1031.9 |
| 20260503200051 | 56 | 142 | 0.0 | 0.0 | 0.00 | 0.00 | 0.00 | 85 | 1031.8 |
| 20260503194550 | 56 | 142 | 0.0 | 0.0 | 0.00 | 0.00 | 0.00 | 84 | 1031.8 |
| 20260503193106 | 57 | 141 | 0.0 | 0.9 | 0.00 | 0.00 | 0.00 | 83 | 1031.7 |
| 20260503191552 | 57 | 140 | 0.0 | 2.6 | 0.00 | 0.00 | 0.00 | 81 | 1031.4 |
| 20260503190100 | 58 | 142 | 0.9 | 3.5 | 0.00 | 0.00 | 0.00 | 80 | 1031.3 |
| 20260503184547 | 58 | 123 | 1.7 | 5.2 | 0.00 | 0.00 | 0.00 | 79 | 1031.1 |
| 20260503183058 | 58 | 104 | 1.7 | 3.5 | 0.00 | 0.00 | 0.00 | 79 | 1031.0 |
| 20260503181547 | 58 | 117 | 0.0 | 5.2 | 0.00 | 0.00 | 0.00 | 79 | 1030.9 |
| 20260503180054 | 58 | 112 | 1.7 | 6.1 | 0.00 | 0.00 | 0.00 | 79 | 1030.9 |
| 20260503174545 | 58 | 109 | 2.6 | 5.2 | 0.00 | 0.00 | 0.00 | 79 | 1030.9 |
| 20260503173103 | 58 | 117 | 1.7 | 5.2 | 0.00 | 0.00 | 0.00 | 82 | 1030.7 |
| 20260503171546 | 57 | 115 | 0.0 | 0.0 | 0.00 | 0.00 | 0.00 | 84 | 1030.7 |
| 20260503081511 | 54 | 73 | 0.0 | 0.0 | 0.00 | 0.00 | 0.00 | 85 | 1031.0 |
| 20260503071511 | 54 | 98 | 0.0 | 0.0 | 0.00 | 0.00 | 0.00 | 84 | 1030.5 |
| 20260503054600 | 57 | 98 | 0.0 | 0.0 | 0.00 | 0.00 | 0.00 | 77 | 1030.2 |
| 20260503053100 | 58 | 98 | 0.0 | 0.0 | 0.00 | 0.00 | 0.00 | 76 | 1030.2 |
| 20260503051601 | 59 | 98 | 1.7 | 2.6 | 0.00 | 0.00 | 0.00 | 76 | 1030.1 |
| 20260503050059 | 59 | 100 | 1.7 | 2.6 | 0.00 | 0.00 | 0.00 | 75 | 1030.2 |
| 20260503044559 | 59 | 101 | 1.7 | 3.5 | 0.00 | 0.00 | 0.00 | 75 | 1030.3 |
| 20260503043058 | 60 | 105 | 1.7 | 3.5 | 0.00 | 0.00 | 0.00 | 74 | 1030.2 |
| 20260503041557 | 61 | 103 | 0.9 | 3.5 | 0.00 | 0.00 | 0.00 | 74 | 1030.4 |
| 20260503040055 | 61 | 98 | 0.9 | 3.5 | 0.00 | 0.00 | 0.00 | 73 | 1030.3 |
| 20260503034555 | 62 | 87 | 1.7 | 3.5 | 0.00 | 0.00 | 0.00 | 73 | 1030.3 |
| 20260503033055 | 62 | 89 | 2.6 | 7.0 | 0.00 | 0.00 | 0.00 | 71 | 1030.3 |
| 20260503031553 | 62 | 34 | 3.5 | 7.0 | 0.00 | 0.00 | 0.00 | 69 | 1030.1 |
| 20260503030052 | 62 | 92 | 4.3 | 6.1 | 0.00 | 0.00 | 0.00 | 71 | 1030.2 |
| 20260503024558 | 63 | 86 | 0.0 | 6.1 | 0.00 | 0.00 | 0.00 | 70 | 1030.2 |
| 20260503023050 | 63 | 123 | 2.6 | 7.0 | 0.00 | 0.00 | 0.00 | 70 | 1030.2 |
| 20260503021557 | 63 | 114 | 2.6 | 7.0 | 0.00 | 0.00 | 0.00 | 69 | 1030.3 |
| 20260503020053 | 63 | 87 | 5.2 | 9.6 | 0.00 | 0.00 | 0.00 | 69 | 1030.4 |
| 20260503014617 | 63 | 180 | 3.5 | 9.6 | 0.00 | 0.00 | 0.00 | 69 | 1030.4 |
| 20260503013044 | 63 | 127 | 4.3 | 8.7 | 0.00 | 0.00 | 0.00 | 70 | 1030.6 |
| 20260503011548 | 63 | 109 | 5.2 | 8.7 | 0.00 | 0.00 | 0.00 | 69 | 1030.7 |
| 20260503010050 | 63 | 146 | 4.3 | 7.8 | 0.00 | 0.00 | 0.00 | 71 | 1030.8 |
| 20260503004554 | 63 | 121 | 4.3 | 8.7 | 0.00 | 0.00 | 0.00 | 72 | 1031.1 |
| 20260503003039 | 63 | 99 | 5.2 | 9.6 | 0.00 | 0.00 | 0.00 | 69 | 1031.1 |
| 20260503001539 | 64 | 86 | 4.3 | 7.8 | 0.00 | 0.00 | 0.00 | 74 | 1031.4 |
| 20260503000037 | 63 | 96 | 4.3 | 7.8 | 0.00 | 0.00 | 0.00 | 73 | 1031.6 |
| 20260502234542 | 63 | 107 | 0.9 | 8.7 | 0.00 | 0.00 | 0.00 | 69 | 1031.8 |
| 20260502233034 | 63 | 96 | 6.1 | 8.7 | 0.00 | 0.00 | 0.00 | 72 | 1031.9 |
| 20260502231537 | 63 | 135 | 5.2 | 9.6 | 0.00 | 0.00 | 0.00 | 69 | 1032.0 |
| 20260502230032 | 62 | 67 | 2.6 | 7.0 | 0.00 | 0.00 | 0.00 | 72 | 1032.1 |
| 20260502224530 | 62 | 101 | 3.5 | 7.0 | 0.00 | 0.00 | 0.00 | 72 | 1032.1 |
| 20260502223034 | 62 | 124 | 1.7 | 7.0 | 0.00 | 0.00 | 0.00 | 72 | 1032.3 |
| 20260502221526 | 61 | 111 | 4.3 | 7.8 | 0.00 | 0.00 | 0.00 | 72 | 1032.3 |
| 20260502220026 | 61 | 101 | 2.6 | 8.7 | 0.00 | 0.00 | 0.00 | 76 | 1032.3 |
| 20260502214523 | 60 | 128 | 3.5 | 7.8 | 0.00 | 0.00 | 0.00 | 77 | 1032.3 |
| 20260502213020 | 60 | 169 | 2.6 | 5.2 | 0.00 | 0.00 | 0.00 | 81 | 1032.2 |
| 20260502211533 | 59 | 182 | 1.7 | 4.3 | 0.00 | 0.00 | 0.00 | 82 | 1032.3 |
| 20260502210016 | 58 | 172 | 2.6 | 5.2 | 0.00 | 0.00 | 0.00 | 83 | 1032.3 |